Weather History for Pensacola, FL

Change the Weather History Date:

Wednesday, December 26, 2012

  Actual Average Record
Temperature  
Mean Temperature 49 °F 52 °F  
Max Temperature 60 °F 61 °F 78 °F (1987)
Min Temperature 38 °F 43 °F 15 °F (1983)
Degree Days  
Heating Degree Days 16 14  
Month to date heating degree days 151 300  
Since 1 July heating degree days 363 512  
Cooling Degree Days 0 0  
Month to date cooling degree days 24 7  
Year to date cooling degree days 3053 2603  
Growing Degree Days 0 (Base 50)    
Moisture  
Dew Point 35 °F    
Average Humidity 65    
Maximum Humidity 80    
Minimum Humidity 50    
Precipitation  
Precipitation 0.00 in 0.14 in 2.66 in (1939)
Month to date precipitation 1.79 3.87  
Year to date precipitation 66.33 64.59  
Snow  
Snow 0.00 in 0.00 in 0.00 in (2001)
Month to date snowfall 0.0 0.0  
Since 1 July snowfall 0.0 0.0  
Snow Depth 0.00 in    
Sea Level Pressure  
Sea Level Pressure 29.96 in    
Wind  
Wind Speed 13 mph (NW)    
Max Wind Speed 26 mph    
Max Gust Speed 36 mph    
Visibility 10 miles    
Events      
T = Trace of Precipitation, MM = Missing Value Source: NWS Daily Summary

Daily Weather History Graph

Daily Weather History Graph

Search for Another Location

Airport:

Trip Planner

Search our weather history database for the weather conditions in past years. The results will help you decide how hot, cold, wet, or windy it might be!

Date:

Astronomy

Dec. 26, 2012 Rise Set
Actual Time 6:44 AM CST 4:55 PM CST
Civil Twilight 6:17 AM CST 5:21 PM CST
Nautical Twilight 5:47 AM CST 5:51 PM CST
Astronomical Twilight 5:18 AM CST 6:21 PM CST
Moon 3:46 PM CST (12/26) 5:09 AM CST (12/26)
Length of Visible Light 11h 04m
Length of Day
10h 11m
Waxing Gibbous, 97% of the Moon is Illuminated
Dec 26
Waxing Gibbous
Dec 28
Full
Jan 4
Last Quarter
Jan 11
New
Jan 18
First Quarter

Hourly Weather History & Observations

Time (CST) Temp. Windchill Dew Point Humidity Pressure Visibility Wind Dir Wind Speed Gust Speed Precip Events Conditions
12:53 AM 59.0 °F - 52.0 °F 78% 29.69 in 10.0 mi WSW 8.1 mph - N/A   Mostly Cloudy
1:53 AM 57.9 °F - 45.0 °F 62% 29.69 in 10.0 mi West 19.6 mph 35.7 mph N/A   Clear
2:53 AM 57.9 °F - 44.1 °F 60% 29.70 in 10.0 mi West 16.1 mph 28.8 mph N/A   Clear
3:53 AM 55.0 °F - 45.0 °F 69% 29.73 in 10.0 mi West 16.1 mph 21.9 mph N/A   Scattered Clouds
4:53 AM 53.1 °F - 43.0 °F 69% 29.75 in 10.0 mi West 11.5 mph - N/A   Mostly Cloudy
5:53 AM 46.9 °F - 36.0 °F 66% 29.81 in 10.0 mi WNW 17.3 mph - N/A   Partly Cloudy
6:53 AM 43.0 °F 36.8 °F 32.0 °F 65% 29.87 in 10.0 mi WNW 11.5 mph 20.7 mph N/A   Clear
7:53 AM 42.1 °F 34.5 °F 30.9 °F 65% 29.90 in 10.0 mi WNW 15.0 mph 23.0 mph N/A   Mostly Cloudy
8:53 AM 44.1 °F 36.5 °F 30.9 °F 60% 29.94 in 10.0 mi WNW 17.3 mph 25.3 mph N/A   Mostly Cloudy
9:53 AM 46.0 °F 38.8 °F 32.0 °F 58% 29.97 in 10.0 mi NW 18.4 mph 24.2 mph N/A   Mostly Cloudy
10:44 AM 48.2 °F - 33.8 °F 58% 29.97 in 10.0 mi NW 18.4 mph 23.0 mph N/A   Scattered Clouds
10:53 AM 48.0 °F - 32.0 °F 54% 29.97 in 10.0 mi WNW 16.1 mph 24.2 mph N/A   Partly Cloudy
11:53 AM 48.9 °F - 32.0 °F 52% 29.96 in 10.0 mi NW 20.7 mph 27.6 mph N/A   Partly Cloudy
12:53 PM 50.0 °F - 32.0 °F 50% 29.96 in 10.0 mi WNW 16.1 mph 20.7 mph N/A   Clear
1:53 PM 52.0 °F - 33.1 °F 49% 29.96 in 10.0 mi NNW 17.3 mph 24.2 mph N/A   Clear
2:53 PM 51.1 °F - 33.1 °F 50% 29.98 in 10.0 mi NW 17.3 mph 20.7 mph N/A   Clear
3:53 PM 48.9 °F - 32.0 °F 52% 30.01 in 10.0 mi NW 11.5 mph - N/A   Clear
4:53 PM 46.0 °F 41.0 °F 33.1 °F 61% 30.02 in 10.0 mi NNW 10.4 mph - N/A   Clear
5:53 PM 44.6 °F 40.7 °F 33.8 °F 66% 30.04 in 10.0 mi NNW 6.9 mph - N/A   Clear
6:53 PM 44.1 °F 39.0 °F 34.0 °F 68% 30.08 in 10.0 mi NW 9.2 mph - N/A   Clear
7:53 PM 42.1 °F 36.1 °F 33.1 °F 70% 30.11 in 10.0 mi NNW 10.4 mph - N/A   Clear
8:53 PM 39.9 °F 32.9 °F 33.1 °F 77% 30.12 in 10.0 mi NNW 11.5 mph - N/A   Clear
9:53 PM 39.0 °F 34.8 °F 33.1 °F 79% 30.14 in 10.0 mi NNW 5.8 mph - N/A   Clear
10:25 PM 39.2 °F 35.9 °F 33.8 °F 81% 30.14 in 10.0 mi NW 4.6 mph - N/A   Mostly Cloudy
10:46 PM 39.2 °F 35.0 °F 32.0 °F 75% 30.13 in 10.0 mi North 5.8 mph - N/A   Partly Cloudy
10:53 PM 39.0 °F 32.8 °F 30.9 °F 73% 30.14 in 10.0 mi North 9.2 mph - N/A   Partly Cloudy
11:53 PM 37.9 °F 32.1 °F 30.9 °F 76% 30.14 in 10.0 mi NNW 8.1 mph - N/A   Clear